User: anonymous   Login
Location: Charleston
(38.3500°N, 81.6330°W)
Time: 03:38:02
(UTC-04:00)
Language:

Cosmos 1812 Rocket - Orbit

View from above orbital plane
View from above orbital plane
View from above satellite
View from above satellite

Ground track
Ground track

The orbit data is extracted from the following two-line orbital elements,

1 17296U 87003B   17296.94868590 +.00000096 +00000-0 +87140-5 0  9997
2 17296 082.5282 264.4302 0019767 152.2532 207.9742 14.83204063641110
Epoch (UTC): 23 October 2017 22:46:06
Eccentricity: 0.0019767
inclination: 82.5282°
perigee height: 605 km
apogee height: 633 km
right ascension of ascending node: 264.4302°
argument of perigee: 152.2532°
revolutions per day: 14.83204063
mean anomaly at epoch: 207.9742°
orbit number at epoch: 64111

The dashed part of the orbit path shows where the satellite is in the earth's shadow,  

DLR